Wind_Speed
9 11 12 13 14 15 17 18 20 21 22 22 23 24 25 26 26 25 24 22 21 20 19 18 18 18 19 18 18 17 17 16 16 16 17 17 18 18 18 18 18 18 18 18 18 18 17 17 17 16 16 16 15 15 14 14 14 14 14 14 14 13 13 13 12 12 12 11 11 10 10 9 8 8 7 7 6 6 6 5 4 4 3 3 2 2
10 11 13 13 14 14 15 15 16 19 21 22 24 25 26 27 27 26 25 23 21 20 19 18 18 18 19 19 18 17 16 16 16 16 17 18 18 19 19 19 19 18 18 18 18 18 17 17 17 16 16 15 15 14 14 14 14 14 14 14 14 13 13 12 12 11 11 10 10 9 9 8 8 7 7 6 6 5 5 5 4 3 3 3 3 3
11 12 12 13 13 13 13 13 13 14 17 19 22 25 26 28 28 27 25 24 23 21 20 19 19 19 19 19 18 17 16 16 16 16 17 18 19 19 19 19 19 19 18 18 18 18 17 17 16 16 15 15 14 14 13 13 13 14 14 13 13 13 12 12 11 11 10 9 9 8 8 7 6 6 5 5 4 4 4 4 3 3 3 3 3 3
13 13 13 13 12 12 12 11 10 10 12 14 18 22 25 28 29 28 26 25 24 23 22 21 21 21 20 20 19 18 17 17 17 17 18 19 20 20 20 20 19 19 18 18 18 17 17 16 16 15 15 14 14 13 13 13 13 13 13 13 13 12 12 11 11 10 9 9 8 7 6 6 5 4 3 3 3 3 3 3 3 3 3 3 4 4
13 13 14 13 12 11 11 10 9 9 10 11 14 19 23 27 29 29 27 26 25 24 23 23 23 23 22 21 20 19 18 18 18 19 19 20 20 20 20 20 19 19 18 18 17 17 16 16 15 15 14 14 13 13 13 13 13 13 13 13 12 12 11 11 10 10 9 8 7 6 5 4 3 3 2 2 3 3 3 3 3 3 4 4 4 5
11 12 13 12 12 11 12 11 11 11 11 12 13 16 20 25 27 27 27 26 26 25 25 24 24 24 24 23 22 20 20 19 19 20 20 21 20 20 20 19 19 18 18 17 17 16 16 15 15 14 14 13 13 13 13 13 13 13 13 12 12 12 11 11 10 9 8 7 6 5 4 4 3 2 2 2 3 3 3 3 3 3 4 4 5 5
10 11 12 11 11 12 13 12 12 13 13 13 14 15 17 20 22 23 24 25 26 25 25 25 26 26 25 24 23 22 21 20 20 20 21 20 20 20 19 19 18 18 17 17 17 16 16 15 14 14 14 13 13 13 13 13 13 13 13 13 12 12 11 10 10 9 8 7 6 5 4 3 2 2 2 2 3 3 3 3 3 3 4 4 5 5
10 10 11 10 9 10 12 13 14 14 14 14 15 15 15 17 17 18 19 21 21 22 23 25 27 27 27 26 25 24 23 22 22 22 21 21 20 19 19 18 18 17 17 17 17 16 16 15 15 14 14 13 13 13 13 13 13 13 13 13 12 11 11 10 9 8 7 6 5 4 3 3 2 1 1 1 2 2 2 3 3 3 4 4 4 5
11 10 10 9 8 8 9 11 13 15 15 16 16 17 16 17 16 16 15 15 16 17 19 23 25 26 26 25 25 25 25 24 23 23 22 22 21 20 19 18 18 18 18 17 17 17 17 16 16 15 14 14 13 13 13 13 13 13 12 12 12 11 10 10 9 8 7 6 5 4 3 2 2 1 1 1 1 2 2 3 3 3 4 4 4 4
12 10 9 10 10 9 8 8 12 16 16 17 17 18 18 19 18 16 14 13 13 15 17 19 21 21 21 21 21 21 22 22 22 23 23 22 21 20 19 19 18 19 19 18 18 18 18 17 17 16 15 14 14 13 12 12 12 12 12 12 12 11 10 9 9 8 7 5 4 3 3 2 2 2 2 2 2 3 3 3 3 3 3 4 4 4
11 11 10 10 11 11 9 9 12 16 17 17 17 17 18 20 20 19 16 14 14 14 15 16 17 17 18 18 18 18 19 19 20 21 22 22 21 20 19 19 19 19 19 19 19 19 18 18 17 16 15 14 13 12 12 12 12 12 13 12 12 11 10 10 9 8 7 5 4 3 3 2 2 2 2 3 3 3 4 3 3 3 3 3 3 3
10 10 9 8 9 9 9 10 12 15 16 16 14 13 14 19 21 21 20 17 16 15 15 15 16 17 17 17 18 18 19 19 18 18 19 20 20 20 19 19 19 18 18 19 19 19 18 18 17 16 15 14 13 12 12 12 12 13 13 13 12 12 11 10 9 8 7 5 4 3 2 2 2 2 3 3 4 4 4 4 3 3 3 2 2 2
10 10 9 9 8 8 9 10 11 13 13 13 12 12 13 17 20 22 21 21 20 18 16 16 16 16 16 17 18 18 19 20 19 18 18 19 19 18 18 18 18 18 18 19 18 18 18 17 17 16 15 14 13 13 12 12 13 13 13 13 13 12 12 11 10 8 7 5 4 3 3 2 2 3 3 4 4 4 4 4 3 3 2 2 2 2
10 10 9 8 7 7 8 11 11 11 10 11 13 15 16 18 20 20 19 20 20 19 17 15 15 14 14 15 16 17 19 19 18 17 17 17 17 17 17 17 18 18 18 18 18 17 17 17 17 17 16 15 14 14 13 13 14 14 14 14 13 13 12 11 9 8 7 5 4 3 3 3 3 3 3 4 4 4 4 4 3 3 3 2 2 3
10 9 8 6 5 5 7 10 10 10 10 12 14 16 18 19 19 19 18 17 18 18 17 15 13 12 11 12 13 15 17 18 17 16 16 15 15 16 16 17 18 18 18 18 18 18 17 17 17 16 16 15 15 15 15 15 14 14 14 14 13 12 11 10 9 8 6 5 5 4 4 3 3 3 4 4 4 4 4 3 3 3 3 3 3 3
9 9 8 6 6 6 6 8 8 9 10 13 14 15 16 18 19 19 18 18 18 18 17 15 11 9 8 9 11 13 15 16 17 16 15 14 14 15 15 16 18 19 19 19 19 18 17 16 16 16 15 15 15 15 15 15 15 14 14 13 12 11 10 9 8 7 7 6 5 5 4 4 4 4 4 4 4 4 3 3 3 3 3 4 4 4
6 7 8 8 7 7 7 7 7 8 8 10 12 13 16 18 20 20 20 19 18 17 16 14 9 5 5 8 9 11 14 16 17 17 16 14 13 14 14 16 18 20 20 20 20 19 17 16 16 15 15 15 15 15 15 15 14 14 13 12 11 10 10 9 8 8 7 6 6 6 5 5 5 5 4 4 4 4 3 3 3 4 4 4 5 5
8 8 9 8 7 7 8 7 7 6 7 8 9 11 14 17 20 20 20 19 17 16 15 15 12 8 5 6 8 11 14 15 17 18 17 14 13 13 14 15 18 20 21 21 20 19 18 17 17 16 16 16 16 15 15 15 14 13 12 11 11 10 10 9 9 8 8 7 7 6 6 5 5 5 4 4 4 4 4 4 4 4 5 5 6 6
10 10 10 9 9 9 10 9 8 6 5 6 7 9 11 14 17 18 18 17 16 15 15 13 13 13 10 9 11 14 15 17 19 19 17 14 13 14 14 15 18 21 23 23 22 21 20 19 18 17 17 16 16 16 15 14 13 13 12 12 12 11 11 10 9 8 8 7 7 6 6 6 5 5 5 4 4 4 4 4 5 5 6 6 7 7
13 13 11 11 11 11 11 11 9 7 5 5 7 9 11 12 14 15 15 15 15 14 14 13 12 12 12 13 15 17 18 19 20 20 18 16 14 14 14 15 18 22 24 24 23 22 22 20 19 18 17 16 16 15 14 14 13 13 13 12 12 12 11 10 9 8 7 7 7 6 6 5 5 5 5 5 5 5 5 5 6 6 7 8 8 9
16 16 15 14 13 12 12 11 10 8 6 6 8 10 11 11 12 12 14 15 15 14 14 12 11 12 14 16 17 18 20 22 22 21 18 15 14 13 13 14 18 22 25 25 25 24 23 21 20 18 17 16 15 15 14 14 14 14 13 12 12 11 10 10 9 8 7 7 6 6 5 5 5 5 5 5 5 6 6 7 8 8 9 10 10 11
18 17 18 18 17 15 12 12 12 11 10 9 10 10 10 10 10 10 12 13 14 13 12 11 12 13 16 17 18 19 21 23 23 22 18 13 12 13 12 12 15 19 22 24 25 24 23 21 19 17 15 14 14 14 14 14 14 13 13 12 11 10 10 9 9 8 7 6 6 5 5 4 4 4 5 5 6 7 8 9 9 10 11 11 12 13
20 19 19 19 18 16 14 14 14 14 13 13 13 12 11 11 11 11 12 13 14 15 15 16 16 17 17 17 18 19 20 21 23 22 18 12 12 15 15 14 15 17 18 20 22 22 21 20 19 17 14 12 12 13 13 13 13 13 12 11 11 10 9 9 8 7 6 6 5 4 4 4 4 4 5 6 7 8 9 10 11 11 12 13 13 14
21 20 20 19 18 17 16 14 14 14 14 15 15 14 13 13 13 13 14 16 18 19 19 20 19 17 16 17 17 17 17 18 19 19 15 11 13 17 20 20 19 19 18 19 20 20 20 20 19 17 15 12 11 12 12 12 12 11 11 10 10 10 9 8 7 6 5 4 4 3 3 3 4 5 6 7 8 10 10 11 11 12 12 13 15 16
23 23 22 21 20 19 18 16 14 13 13 13 14 14 14 14 14 16 17 18 20 21 21 20 17 15 14 14 15 14 15 15 16 16 14 11 13 18 22 22 20 19 19 21 22 22 22 22 20 18 16 14 11 10 10 11 11 10 10 10 9 9 8 7 6 5 4 3 3 2 3 4 5 6 7 8 9 10 11 11 12 12 13 14 15 16
23 24 24 23 21 20 19 18 15 13 12 11 11 11 11 12 14 16 18 18 19 19 19 16 12 10 10 11 11 11 12 12 13 14 16 14 14 16 19 20 20 19 19 21 23 24 24 23 21 19 18 16 13 10 9 9 9 9 8 8 8 7 7 6 5 4 3 2 2 2 3 4 6 7 8 9 10 10 11 11 11 12 13 14 16 17
20 20 20 19 19 19 18 18 16 14 12 11 10 9 7 8 11 14 14 14 15 15 14 11 8 7 8 8 8 8 10 10 11 13 17 19 17 15 16 19 20 21 20 21 22 22 22 21 19 18 17 16 14 12 10 9 8 8 7 6 6 5 5 4 3 2 1 1 2 3 4 5 6 7 8 9 9 10 11 11 11 12 13 14 16 16
16 15 15 15 15 15 15 15 15 14 13 11 10 8 7 7 10 12 11 11 11 12 12 10 7 5 5 4 6 8 10 10 11 13 17 20 17 15 17 19 21 21 21 19 19 19 19 18 17 16 16 14 13 11 10 9 8 8 7 6 5 4 3 2 2 1 0 1 2 3 4 5 6 7 8 9 10 10 10 10 10 12 13 14 15 16
13 13 13 13 13 13 13 14 14 14 13 12 11 10 9 10 12 12 10 10 10 11 11 10 9 7 6 6 7 9 10 10 10 11 14 16 14 14 18 20 21 22 21 18 16 15 14 14 14 14 13 11 10 8 7 7 7 6 5 4 3 2 2 1 1 1 1 2 3 4 5 6 7 7 8 9 10 10 10 9 10 11 13 14 15 15
13 13 14 14 14 14 14 14 14 14 14 13 13 12 12 12 13 13 11 10 10 11 11 11 11 10 9 7 5 6 8 9 8 8 11 10 10 13 17 18 19 21 21 17 11 8 8 10 11 11 10 9 8 6 5 4 4 3 3 2 1 1 2 2 2 2 2 3 4 5 6 6 7 8 9 9 10 10 9 9 9 11 12 13 14 14
16 17 17 17 17 16 16 16 16 15 15 15 15 15 15 14 14 12 11 11 11 11 12 11 11 10 8 4 2 1 2 6 7 7 7 6 8 12 16 15 16 18 19 15 9 4 4 7 9 10 10 9 7 5 4 3 2 1 1 1 2 3 3 3 3 3 3 4 5 5 6 7 7 8 9 9 9 9 8 8 8 10 11 12 13 13
19 19 20 19 19 19 18 18 17 17 17 17 17 17 17 16 15 14 12 12 11 11 12 11 10 9 7 6 4 2 2 5 6 6 6 6 8 12 14 13 13 14 15 14 11 7 4 5 8 9 10 9 7 5 4 3 1 0 1 2 3 4 4 4 4 4 5 5 5 6 6 7 7 8 8 8 8 8 7 7 8 8 10 11 11 11
20 20 20 20 20 20 19 19 18 18 18 18 18 17 17 16 16 15 14 13 12 12 11 11 10 10 10 10 9 7 6 7 7 7 7 7 8 9 11 11 11 11 11 10 10 8 6 6 7 8 9 8 7 5 4 3 2 0 1 2 3 3 4 4 4 4 4 5 5 6 6 6 6 7 7 7 7 7 7 7 7 7 8 9 9 10
20 20 20 20 20 20 20 19 19 19 19 19 18 17 16 16 15 15 14 14 13 12 11 11 11 11 11 11 11 10 9 9 8 8 7 7 7 7 9 10 10 10 9 7 6 6 6 6 6 7 8 7 6 4 4 3 1 0 1 2 3 3 3 3 3 3 4 4 4 5 5 5 6 6 6 7 7 7 6 6 6 6 6 7 8 9
20 20 20 20 20 20 20 20 20 19 19 19 18 17 16 15 15 14 13 13 12 12 11 11 11 10 11 11 11 10 10 9 8 7 7 7 8 9 9 8 8 8 7 6 5 5 4 5 6 6 6 6 5 4 4 3 2 1 2 3 3 3 2 2 2 2 3 4 4 4 5 5 6 6 7 7 7 7 7 6 6 5 5 5 6 7
19 19 19 19 19 19 20 20 20 19 19 18 17 16 16 15 14 14 13 12 11 11 11 11 11 10 10 11 12 11 10 9 8 7 6 6 7 7 6 6 6 6 6 7 6 5 4 5 4 4 3 4 4 4 4 2 1 1 3 3 3 3 2 2 1 2 3 4 5 5 5 6 7 7 7 7 7 7 7 6 6 5 4 4 4 4
19 19 19 18 18 18 18 18 19 18 18 17 16 15 14 14 14 13 13 12 11 10 10 10 10 9 9 9 10 10 9 7 7 6 6 5 4 4 5 5 4 4 4 5 6 6 5 4 3 3 2 3 4 4 3 1 1 2 3 3 3 3 2 1 1 2 3 4 5 6 6 7 8 8 8 8 7 7 6 6 5 5 5 5 4 4
17 17 17 17 17 17 17 17 17 16 16 15 14 13 12 12 12 12 12 12 11 11 11 10 10 9 9 8 8 8 7 7 6 6 5 5 4 3 3 4 4 3 2 3 3 4 4 4 4 4 4 4 4 3 2 1 2 3 3 3 3 3 2 1 0 2 3 4 5 6 7 8 9 9 9 8 8 7 6 6 5 5 5 6 6 6
15 15 15 16 16 16 16 15 15 14 13 12 11 11 10 10 10 10 10 11 11 11 11 11 11 11 10 10 9 8 7 6 6 6 5 5 4 4 3 4 4 3 2 2 2 2 3 4 4 5 5 4 4 3 1 1 2 2 3 2 2 3 2 1 1 3 4 5 6 7 9 9 9 9 9 9 8 7 7 6 6 7 7 8 8 8
14 14 14 14 14 15 15 14 13 11 10 9 9 8 8 9 9 8 9 9 9 10 10 10 10 11 11 11 10 10 9 8 7 6 6 6 5 4 4 4 4 3 3 3 2 2 3 3 4 4 4 4 4 3 2 1 1 2 2 1 1 1 1 1 3 4 5 6 7 9 10 10 10 10 9 9 8 7 7 7 8 8 9 10 11 12
14 14 14 14 13 13 13 12 11 9 9 8 8 8 9 9 9 8 8 8 8 8 9 9 9 10 10 11 11 11 10 9 8 8 7 6 6 5 4 4 4 3 3 3 3 3 3 3 4 4 4 4 3 3 2 2 1 0 0 1 2 2 3 3 4 5 6 7 8 10 10 11 10 10 9 8 8 8 8 8 9 10 10 11 12 13
13 14 13 13 12 12 11 10 9 9 8 9 9 10 10 10 9 9 8 8 8 8 8 8 8 9 10 11 11 10 10 10 9 8 8 7 6 6 5 5 4 3 2 2 3 3 3 3 3 4 4 4 3 3 3 3 2 2 2 3 4 5 5 4 4 5 6 8 9 10 10 10 10 9 9 9 8 8 9 9 10 10 11 12 13 13
13 13 12 11 11 10 9 9 9 10 10 11 12 12 12 11 10 10 9 9 9 8 8 7 8 9 10 10 10 10 9 9 8 8 8 7 7 6 5 4 4 3 2 2 2 2 2 3 3 3 3 3 3 3 3 3 3 4 4 4 5 5 4 4 5 7 8 8 8 8 8 8 9 9 9 10 10 10 10 10 11 11 12 13 13 14
11 11 11 10 10 9 9 10 10 11 12 13 14 13 12 11 10 10 10 10 9 9 8 7 8 9 10 10 9 9 8 8 8 8 7 7 7 6 5 5 4 2 1 1 1 2 2 2 2 2 3 3 4 4 4 4 4 4 4 5 6 6 5 6 7 7 6 6 5 5 6 7 8 9 10 11 11 12 12 12 12 13 13 14 14 15
10 10 10 10 10 10 10 11 10 11 12 13 13 13 12 11 11 11 11 10 10 9 8 7 8 9 10 9 8 7 7 7 7 7 7 7 6 5 5 5 4 3 2 1 0 1 1 1 2 3 4 4 5 5 4 4 5 5 5 5 5 5 5 5 4 4 3 3 3 5 6 7 9 10 12 12 13 13 14 14 15 15 15 15 15 16
10 10 10 9 9 10 10 9 9 10 10 11 12 12 12 11 11 11 11 10 10 9 8 7 8 10 10 9 8 7 7 6 6 6 6 6 5 5 4 4 4 3 3 2 1 1 2 3 3 4 4 5 5 6 6 5 5 4 4 3 2 2 2 1 1 1 2 3 4 6 7 9 10 12 14 15 15 16 16 16 16 16 16 16 16 16
10 10 10 9 9 9 8 8 8 9 10 10 11 11 11 11 11 11 11 10 10 9 9 8 9 10 11 10 9 8 8 7 6 5 5 4 4 4 4 4 3 3 3 2 2 2 3 4 4 5 5 5 5 5 5 5 4 3 2 1 0 0 1 1 1 1 2 4 6 8 9 11 12 14 15 17 17 18 17 17 17 17 17 17 17 16
10 10 9 9 8 8 8 8 8 8 9 9 10 10 10 10 10 10 10 10 9 9 9 9 9 9 9 8 7 7 7 7 7 6 5 4 3 3 3 3 3 3 3 2 2 3 3 4 5 5 6 6 5 5 4 2 1 1 1 1 1 1 2 1 1 2 4 5 7 9 11 13 14 16 17 18 18 18 18 18 18 18 17 17 17 16
9 9 9 8 8 8 8 8 8 8 9 9 9 9 9 9 9 9 9 9 9 9 8 8 8 7 7 7 6 5 5 5 5 5 5 5 4 4 4 5 4 4 3 3 3 3 4 4 4 4 4 4 3 2 1 1 1 2 2 2 2 2 2 2 3 4 6 7 8 10 12 13 15 16 17 17 18 18 19 19 19 18 17 17 16 16
9 9 9 8 9 9 9 9 9 9 9 9 9 8 8 8 8 8 8 8 8 8 8 7 7 7 7 6 6 5 4 4 4 4 5 5 5 6 6 7 7 7 7 7 6 3 1 1 2 1 1 2 1 1 2 3 2 2 2 3 3 3 3 4 5 7 8 9 10 12 13 14 15 16 16 16 17 18 19 19 19 18 18 17 17 16
9 9 9 9 9 9 9 9 9 9 9 8 8 7 7 7 7 7 7 7 7 7 7 7 6 7 7 6 6 5 4 4 4 4 5 5 5 5 6 7 8 9 10 10 10 9 6 3 3 4 5 5 4 3 3 3 3 2 2 3 3 4 5 6 7 9 10 11 12 14 15 16 16 17 16 16 16 16 17 17 19 19 19 19 18 18
Wind_Direction
159 161 162 168 175 181 187 191 194 196 196 194 193 192 190 189 187 187 186 186 187 188 187 186 184 182 181 181 180 179 179 178 178 176 175 173 173 173 173 173 173 172 172 171 171 170 169 168 167 166 165 164 164 163 162 161 159 158 157 156 156 155 153 152 151 151 150 148 146 142 138 135 131 127 124 120 117 112 108 103 99 94 87 78 66 56
157 154 154 153 156 161 169 177 187 194 197 197 196 194 192 190 189 189 189 190 191 191 191 190 188 185 183 182 182 182 182 181 180 177 175 173 172 172 172 171 171 170 170 170 169 169 169 168 168 167 166 164 163 162 161 160 160 159 159 159 158 157 156 154 153 151 150 149 146 143 139 135 131 127 123 118 113 107 101 95 87 78 67 56 48 40
167 160 157 153 152 155 159 163 170 181 192 198 199 198 195 193 191 191 192 192 193 194 194 193 191 188 185 184 184 185 185 185 182 179 175 173 172 171 170 170 169 168 168 168 168 168 168 168 168 167 166 165 163 162 161 160 160 160 161 162 161 161 160 158 157 155 153 151 148 144 140 137 132 126 120 112 102 94 87 78 69 55 43 32 27 23
180 174 168 163 160 160 161 160 160 165 178 193 200 201 200 197 195 194 194 195 195 195 194 193 192 189 186 185 185 186 187 187 184 179 176 173 171 171 170 169 168 167 167 166 167 167 167 167 167 167 167 165 164 162 161 160 161 162 163 165 165 165 164 164 162 160 158 155 151 147 142 137 132 124 114 98 82 69 59 51 40 26 12 5 4 3
188 184 180 175 173 172 173 171 167 166 171 186 197 203 203 201 198 196 196 197 196 196 195 193 191 189 186 185 186 187 189 188 185 180 177 174 173 172 171 170 169 168 167 167 167 168 168 168 168 168 168 168 167 165 163 163 164 165 167 169 169 170 170 169 167 165 162 157 152 146 140 133 126 115 95 72 54 45 37 30 18 6 356 351 350 349
192 190 186 183 180 179 181 183 181 177 176 184 194 201 204 203 200 198 197 197 197 197 196 194 192 189 187 185 185 186 188 188 185 182 179 177 176 175 174 172 171 170 169 169 169 169 170 170 171 171 172 171 171 170 168 168 169 171 172 173 174 175 174 173 171 167 162 156 149 141 134 126 115 95 68 47 36 30 25 18 8 357 350 346 344 342
199 196 191 186 183 182 184 187 188 185 182 183 188 194 198 199 198 198 199 198 198 197 197 196 194 191 188 186 184 184 185 186 185 183 181 180 179 179 178 176 174 173 172 171 171 172 172 173 174 175 175 176 176 175 174 174 175 176 177 178 178 178 177 174 171 165 159 152 144 136 129 120 109 87 53 32 22 18 12 5 357 350 347 343 341 340
203 200 195 187 181 180 182 185 187 187 186 182 180 181 184 187 191 195 199 200 199 198 197 196 195 193 190 186 184 182 182 183 183 182 182 182 182 182 181 179 177 175 174 173 174 174 175 175 177 178 179 180 181 180 179 178 178 178 179 179 179 177 176 173 169 163 157 150 145 138 132 127 121 110 55 14 5 359 353 347 343 340 339 338 337 337
204 198 195 190 181 175 175 181 185 187 186 184 179 175 173 175 181 187 194 197 198 199 200 198 196 193 191 187 184 182 181 182 183 183 182 182 182 183 182 180 178 176 175 175 175 176 177 177 178 180 182 183 184 183 181 179 178 179 180 179 178 178 176 173 169 165 160 155 151 148 146 148 156 177 219 288 313 319 320 321 322 325 327 329 330 333
206 199 193 190 186 181 178 178 185 188 187 186 184 180 176 173 173 177 182 188 194 199 202 200 196 193 190 187 185 183 182 182 184 185 185 183 183 183 182 180 178 177 177 177 178 179 179 180 181 182 184 186 187 186 183 180 179 180 181 181 181 180 179 176 174 171 169 167 167 167 170 178 189 209 228 247 264 276 286 294 302 308 314 318 323 330
205 201 193 186 185 185 184 180 182 186 186 184 182 180 179 177 174 173 174 181 188 193 196 195 191 188 186 186 185 183 182 182 185 187 188 187 186 184 183 181 180 180 180 181 182 183 183 184 185 186 187 189 189 188 185 182 181 182 183 184 184 184 183 181 180 180 181 183 185 189 195 202 211 220 231 242 249 259 267 277 286 294 301 310 319 331
197 197 193 187 182 179 176 172 176 180 181 178 175 175 177 179 179 179 177 179 182 183 182 181 181 181 182 184 185 185 184 184 184 186 188 189 189 188 186 185 184 184 185 186 187 188 188 189 190 191 192 192 192 191 188 186 184 185 185 186 187 187 187 187 187 188 191 194 198 206 214 221 225 229 236 241 245 251 257 263 270 276 284 295 313 327
190 191 187 182 177 173 167 159 161 167 172 173 172 172 177 181 183 183 181 182 182 180 177 171 170 174 179 183 185 186 187 186 184 184 187 189 189 188 186 187 187 186 187 187 188 188 190 191 193 194 195 196 195 194 191 188 186 186 187 188 189 190 190 191 192 193 195 199 203 210 218 223 229 232 235 239 242 245 249 254 256 259 263 269 286 303
180 181 177 170 167 166 162 157 157 161 169 175 177 178 180 182 183 183 180 178 179 181 179 168 163 166 173 180 184 187 189 188 185 183 184 185 184 183 183 184 185 185 186 184 184 184 187 189 191 193 195 195 194 192 189 187 186 186 187 189 190 191 191 192 193 194 195 197 201 204 208 213 220 224 228 230 234 236 240 244 248 250 253 259 271 284
169 168 159 143 134 138 146 153 157 163 172 179 181 181 180 180 180 179 173 169 170 173 174 168 163 163 168 175 180 183 186 186 182 178 178 178 180 181 181 181 181 182 182 181 181 182 186 188 189 189 190 191 189 187 185 184 184 185 187 188 189 189 190 190 190 192 194 195 195 195 198 202 207 212 216 220 223 227 234 240 246 250 256 260 270 281
162 158 146 132 114 108 120 137 145 154 168 177 179 178 177 175 174 172 168 165 164 165 164 162 161 164 176 185 183 179 178 176 173 171 171 173 178 181 179 178 177 178 178 178 178 179 181 184 185 185 184 184 183 182 181 181 181 183 185 186 186 186 186 186 187 188 189 189 188 190 193 198 203 206 210 215 221 227 234 243 250 258 262 266 273 281
121 130 128 119 104 95 105 117 128 141 158 170 176 177 176 173 172 170 168 166 166 167 169 168 164 162 179 196 196 188 178 175 174 175 173 171 174 178 178 176 174 174 174 173 172 172 172 174 176 177 176 176 177 177 177 177 178 179 180 181 181 180 181 182 183 182 182 182 184 187 192 197 202 207 213 219 226 234 241 250 256 263 270 274 278 283
70 86 98 99 93 87 90 94 105 124 144 156 168 176 178 177 175 172 170 168 170 173 176 176 178 178 172 173 189 192 182 174 169 166 164 163 165 169 172 172 171 169 166 165 164 163 163 163 165 167 168 170 171 172 172 172 172 173 175 175 174 174 176 176 177 177 177 179 183 188 194 199 205 211 219 226 234 242 249 257 264 271 276 281 284 286
55 64 75 81 83 80 75 72 74 87 109 132 152 165 172 180 181 178 175 174 176 178 178 178 180 179 174 171 175 179 176 172 164 154 144 141 147 156 161 161 161 159 157 155 154 153 152 152 154 157 161 163 165 166 168 169 169 170 169 169 170 172 171 171 172 173 175 180 185 190 196 202 209 217 224 233 242 250 258 266 273 279 284 287 288 289
54 54 59 71 77 72 63 58 58 66 84 123 146 151 151 167 175 179 183 186 187 185 179 174 170 169 169 166 166 168 170 169 158 145 134 129 132 140 148 148 146 145 145 144 144 144 143 142 143 147 152 158 161 162 162 162 162 162 164 165 166 167 167 167 167 169 173 180 187 192 198 205 214 223 233 241 250 259 267 275 282 287 290 292 292 292
61 57 60 68 71 66 59 53 54 62 83 118 135 137 137 145 153 165 181 190 195 193 185 172 160 157 164 161 159 161 166 164 156 147 138 130 129 135 142 141 138 135 133 134 135 137 136 135 136 140 145 151 154 156 157 158 159 160 161 162 162 162 162 163 164 168 174 180 187 193 201 211 221 232 243 254 263 272 278 284 289 293 295 296 295 295
72 68 68 71 72 70 64 59 58 65 82 100 106 107 112 120 125 135 154 170 178 177 166 149 145 151 157 156 157 161 164 165 160 152 144 134 134 144 154 147 138 132 127 127 130 133 134 133 132 132 136 143 147 150 153 155 156 157 158 158 158 158 158 160 163 168 174 180 187 196 207 220 234 247 259 270 277 283 288 292 295 297 298 298 297 296
75 74 73 72 72 72 70 67 67 70 78 87 91 94 102 110 115 120 129 140 146 145 142 140 142 146 150 150 153 158 162 165 163 157 147 140 142 153 163 161 150 138 129 128 131 134 135 133 130 127 128 135 142 147 149 151 153 154 155 156 156 157 159 161 165 169 174 180 190 202 217 233 250 265 276 284 290 294 296 298 300 301 301 299 297 296
72 73 72 71 71 71 70 68 67 67 70 74 79 86 94 104 112 120 127 134 136 135 134 133 131 130 131 136 141 148 155 159 158 153 143 136 144 153 158 159 154 146 138 136 137 139 140 138 135 133 130 130 138 146 147 148 149 150 152 154 156 159 161 163 165 169 175 184 197 213 234 255 271 283 290 295 299 301 303 304 304 304 302 299 297 296
69 69 69 69 69 69 68 67 65 65 66 67 69 72 79 90 101 112 120 125 126 126 126 121 114 108 111 121 127 134 144 151 153 149 136 129 138 149 153 155 152 146 141 142 144 145 144 142 141 139 136 132 132 139 145 147 148 149 151 154 157 160 161 162 164 169 177 192 211 237 261 278 290 296 301 303 305 306 307 308 307 305 301 298 297 296
70 70 70 69 68 67 66 64 63 64 66 67 67 68 74 86 97 104 107 110 114 117 117 110 102 96 101 106 108 115 129 139 146 147 142 134 135 143 150 151 149 144 138 139 141 143 141 141 141 141 141 137 133 133 139 144 145 145 146 149 151 153 155 157 162 169 183 207 245 272 288 297 302 305 307 308 309 309 310 309 308 304 301 298 297 297
70 71 70 69 67 66 63 61 60 61 64 67 67 67 73 89 96 94 90 95 106 112 110 106 102 97 91 87 87 99 115 122 129 138 144 141 138 140 146 147 147 142 135 132 133 135 136 136 136 137 139 139 138 137 136 138 134 129 132 134 136 139 143 147 152 163 194 256 286 299 305 308 310 311 311 311 310 310 310 310 307 303 300 298 297 297
67 67 67 67 67 66 64 61 59 59 61 65 68 69 73 88 89 82 75 89 103 107 104 105 106 102 92 83 83 93 105 106 110 124 138 140 139 140 147 148 148 144 136 130 129 132 134 132 132 133 135 136 139 140 141 141 138 134 130 127 126 125 124 124 124 129 300 309 311 314 315 315 314 312 310 309 309 309 310 309 306 301 298 297 296 296
64 65 66 67 69 69 68 67 64 62 62 65 70 74 79 87 87 85 85 97 103 104 102 104 106 108 109 104 93 87 87 88 97 115 133 135 136 142 149 151 151 149 144 137 133 132 131 132 135 134 133 134 137 141 145 148 147 145 141 135 124 110 98 83 59 14 338 325 322 320 318 317 314 311 308 308 307 307 307 307 304 299 296 296 295 296
67 68 69 69 71 72 72 71 70 68 67 69 72 77 81 86 90 93 96 102 104 103 104 107 111 117 121 117 99 76 65 64 80 108 124 124 129 140 148 151 153 154 152 149 143 134 131 140 143 142 139 139 141 146 150 152 152 149 142 122 73 40 30 17 0 341 330 325 322 320 317 314 310 307 306 306 305 304 303 304 302 299 296 296 296 297
70 70 69 70 70 71 72 71 71 71 71 72 74 76 79 82 87 94 99 102 104 105 107 110 115 122 127 127 118 71 48 47 68 99 112 117 129 139 146 150 155 158 159 159 154 138 141 149 150 149 148 147 149 152 152 148 138 113 31 354 349 347 346 341 333 325 320 318 317 315 313 310 308 306 305 304 303 302 301 302 303 301 299 299 300 302
72 71 70 69 69 69 68 68 68 69 69 70 71 72 74 75 79 84 91 96 102 107 109 109 112 113 110 99 92 93 85 64 77 93 101 111 129 139 145 149 153 158 160 161 154 143 137 150 153 151 149 148 149 151 152 151 144 43 350 342 340 339 337 333 328 323 318 316 314 311 309 307 306 305 303 302 300 298 298 301 304 304 303 304 306 308
72 71 69 68 68 66 65 65 64 64 64 64 64 65 67 69 71 74 79 86 94 101 105 104 103 101 99 95 93 92 90 87 91 99 107 114 124 135 143 145 148 151 155 153 146 137 129 139 150 154 153 150 147 147 148 155 165 204 329 342 346 344 339 335 331 324 320 316 314 310 307 306 305 304 303 300 297 294 294 298 303 306 307 309 312 314
72 71 69 68 67 66 65 64 63 61 60 59 59 59 60 63 65 68 71 75 81 87 93 96 96 97 98 98 96 92 90 90 96 103 108 116 122 129 135 137 141 147 150 147 136 123 114 119 131 141 146 144 143 143 141 141 143 9 340 348 354 354 350 347 338 329 320 315 311 307 306 306 306 306 304 301 297 294 293 295 299 303 307 315 319 320
71 69 69 68 67 66 66 65 64 62 61 60 58 58 58 59 61 63 66 69 72 76 80 84 87 92 99 101 99 93 87 86 90 95 99 109 117 122 124 125 134 143 145 144 136 121 106 113 123 132 136 131 131 135 139 131 106 43 5 356 356 357 356 354 344 328 317 310 305 305 309 312 314 313 311 308 302 298 296 295 294 295 300 313 322 324
65 64 64 65 65 65 65 66 66 65 63 62 61 60 60 60 61 62 63 66 69 72 76 78 80 83 89 95 96 93 86 82 81 81 86 99 114 120 116 115 126 137 136 135 133 127 115 116 128 144 145 134 132 135 141 144 125 10 0 4 10 16 18 10 344 320 309 306 305 310 316 321 322 320 317 312 306 300 296 293 290 286 284 290 303 318
62 60 60 62 63 64 64 65 67 67 66 65 65 65 65 65 66 66 66 67 69 73 77 81 83 83 84 87 87 85 81 75 67 63 68 82 101 115 116 116 125 137 139 135 135 135 127 120 127 147 166 159 146 141 145 179 280 319 346 17 45 63 66 64 356 304 300 301 307 315 322 325 325 323 318 311 304 296 290 285 281 278 275 275 279 290
60 58 57 60 62 64 64 64 66 67 67 67 68 68 69 71 73 74 74 74 74 76 78 81 84 86 86 85 83 80 77 69 59 52 51 57 68 90 109 119 128 142 157 155 156 155 149 140 138 146 157 165 165 166 180 269 317 342 3 33 63 86 97 107 197 285 291 297 305 314 321 323 322 320 315 309 301 293 285 279 278 278 278 278 279 282
59 57 56 57 60 63 64 65 67 69 70 71 71 71 72 74 78 80 82 83 82 82 83 84 86 89 89 90 89 88 84 78 71 64 60 58 60 69 90 114 126 135 148 167 187 194 188 175 163 157 154 153 156 165 190 284 344 7 23 49 88 115 126 143 259 284 290 297 305 312 318 319 318 316 312 308 304 299 296 296 298 301 300 297 294 291
59 59 58 60 64 68 69 70 71 72 74 75 76 76 76 77 79 82 86 90 92 93 94 95 96 96 97 96 96 96 95 92 89 84 81 78 76 78 87 107 119 129 140 154 174 189 198 194 186 177 170 160 157 158 157 122 46 32 36 73 125 160 172 242 276 285 290 298 307 313 316 316 314 311 308 306 307 308 310 313 315 317 318 319 318 315
61 61 63 67 70 72 73 74 76 76 78 79 80 78 75 75 77 82 88 94 98 102 104 107 108 107 105 102 101 99 97 96 94 92 90 88 89 93 99 108 115 126 145 161 169 175 181 181 179 179 183 184 188 193 195 174 140 111 242 268 271 274 276 276 277 281 290 301 308 311 311 309 306 304 303 303 305 309 312 315 318 321 323 325 325 326
62 64 67 71 73 75 77 79 79 78 78 78 75 72 70 69 71 76 85 93 98 103 110 115 117 116 111 106 104 102 99 95 93 91 90 88 88 92 99 106 113 124 142 161 166 167 169 171 172 173 179 190 199 205 207 209 212 218 238 265 283 289 286 274 273 286 299 306 308 306 303 299 298 298 299 301 303 305 308 311 315 319 322 324 325 324
68 69 71 72 74 76 79 78 77 75 73 71 69 68 66 66 67 71 77 83 89 96 105 116 124 123 116 108 104 102 100 96 93 90 87 83 81 83 88 95 104 114 130 143 147 154 174 185 184 181 192 206 217 224 224 234 239 245 256 270 286 294 291 286 292 301 305 306 303 299 295 293 295 297 298 299 300 301 304 307 310 313 316 319 321 322
68 69 70 71 72 73 72 71 70 69 68 67 66 65 64 63 65 68 71 74 79 88 100 116 128 129 118 108 103 102 102 101 97 92 86 81 77 74 75 78 82 89 110 111 117 136 170 192 205 216 223 231 240 247 254 260 263 267 273 280 286 289 288 295 304 308 307 302 296 293 293 295 296 296 297 298 299 302 305 307 309 311 314 316 318 320
62 63 64 65 65 65 65 66 65 65 65 64 63 62 60 60 61 63 66 68 71 78 91 112 123 115 96 93 95 99 104 105 102 95 89 83 77 73 69 67 64 61 58 67 107 179 207 224 236 242 243 246 252 260 268 274 277 279 284 288 287 285 287 297 308 316 320 312 306 305 304 303 302 302 303 304 306 308 311 313 314 315 316 318 319 320
55 56 57 57 59 61 63 62 61 61 61 60 58 56 56 55 56 57 60 62 65 70 78 94 100 94 83 79 80 84 88 95 99 97 91 85 80 76 69 62 57 50 41 29 341 264 254 256 258 257 258 259 261 264 268 275 279 284 289 292 286 277 283 316 353 0 338 324 321 319 315 309 308 311 315 315 315 315 315 316 317 318 319 320 320 320
51 51 52 52 55 57 58 56 54 54 54 53 51 49 48 48 48 50 52 55 60 66 72 79 83 84 80 76 72 69 67 68 73 80 86 83 79 73 64 56 48 38 27 11 340 294 274 264 263 264 266 268 269 270 273 278 281 289 308 320 318 154 103 81 59 9 329 323 325 325 321 320 322 324 324 323 321 319 318 317 317 318 319 320 321 320
49 49 49 48 49 51 51 49 47 48 49 48 45 43 41 41 41 42 44 47 52 59 67 73 78 80 78 74 69 65 63 61 61 62 64 65 60 49 40 34 29 23 6 343 320 300 286 280 275 272 269 266 265 267 274 284 304 348 33 54 68 81 89 67 10 333 323 323 325 327 329 331 335 336 333 329 325 322 320 319 318 318 319 320 320 320
50 49 48 46 46 47 47 44 44 44 45 43 41 39 38 37 38 39 41 42 47 53 60 67 74 77 74 70 67 66 62 61 60 57 52 46 40 33 25 17 10 1 348 329 310 293 285 279 274 271 267 263 259 260 282 59 73 74 67 62 60 58 46 8 339 328 324 324 325 327 330 334 336 337 336 334 329 324 321 320 319 318 318 319 320 320
53 51 48 47 47 48 47 45 44 45 44 41 39 37 37 38 39 41 43 44 47 52 56 60 66 70 69 65 61 58 56 56 56 51 44 38 33 28 25 19 11 4 1 356 351 346 332 207 196 180 138 114 105 89 73 68 66 63 54 46 38 24 8 351 338 331 328 326 327 327 330 333 335 337 338 336 331 326 323 320 319 319 318 319 320 320
56 53 50 49 51 51 49 48 48 48 48 44 40 38 38 41 44 46 47 49 53 56 57 58 61 64 64 61 57 53 50 49 49 45 39 33 30 29 29 24 19 16 17 19 22 26 41 63 98 115 111 102 90 72 50 43 34 23 21 22 14 3 353 345 337 331 329 328 328 330 332 335 338 340 342 339 334 327 322 320 319 318 318 320 322 321
Height
726 727 728 728 729 731 732 733 734 735 736 737 739 740 742 743 745 746 747 748 749 751 752 753 754 755 756 757 758 759 760 761 762 762 763 765 766 767 769 770 771 772 773 774 775 777 777 778 779 780 780 781 781 782 782 782 782 783 784 785 786 787 788 789 789 790 791 791 792 793 794 795 795 796 796 797 797 798 798 798 799 799 800 800 800 801
726 727 727 728 729 730 732 733 734 735 736 737 738 739 741 742 744 745 747 747 749 750 751 752 753 754 755 756 757 758 759 760 761 762 763 764 766 767 768 770 771 772 773 774 775 776 777 777 778 779 780 780 781 781 782 782 782 783 784 785 786 787 788 788 789 790 791 791 792 793 794 794 795 796 796 796 797 797 798 798 799 799 799 800 800 800
725 726 727 728 729 730 731 732 733 734 736 737 738 739 740 742 743 744 746 747 748 749 751 752 752 754 755 756 757 758 759 760 761 762 763 764 766 767 768 769 770 772 772 773 774 775 776 777 778 778 779 779 780 780 781 782 782 783 784 785 786 787 787 788 789 790 791 791 792 793 794 794 795 795 796 796 797 797 797 798 798 799 799 799 800 800
724 725 727 728 729 730 731 732 732 734 735 736 737 738 740 741 742 743 745 746 747 749 750 751 752 753 754 755 756 757 758 759 760 761 762 764 765 766 767 769 770 771 772 773 774 775 775 776 777 777 778 779 779 780 781 781 782 783 784 785 786 787 787 788 789 790 791 791 792 793 793 794 794 795 796 796 796 797 797 798 798 798 799 799 799 800
723 724 726 727 728 729 730 731 732 733 734 735 737 737 739 740 742 743 744 746 747 748 749 750 751 752 753 754 756 757 757 759 760 761 762 763 765 766 767 768 769 770 771 772 773 774 775 775 776 777 777 778 779 779 780 781 782 783 784 785 786 786 787 788 789 790 791 791 792 792 793 794 794 795 795 796 796 797 797 797 798 798 799 799 799 799
722 723 725 726 727 728 729 730 731 732 733 735 736 737 738 740 741 742 743 745 746 747 748 749 751 752 753 754 755 756 757 758 759 761 762 763 764 765 767 767 768 770 770 771 772 773 774 775 775 776 777 777 778 779 780 781 782 782 783 784 785 786 787 788 789 789 790 791 791 792 793 793 794 794 795 796 796 796 797 797 798 798 798 799 799 799
722 723 724 725 726 727 728 729 730 731 732 733 735 736 738 739 741 742 743 744 745 746 747 749 750 751 752 753 755 756 757 758 759 760 762 763 764 765 766 767 768 769 770 771 772 772 773 774 775 775 776 777 778 779 779 780 781 782 783 784 785 786 787 787 788 789 790 791 791 792 792 793 793 794 795 795 796 796 796 797 797 798 798 798 799 799
721 722 723 724 725 727 727 728 729 730 731 732 734 735 737 739 741 742 743 744 745 746 747 748 749 751 752 753 754 756 757 758 759 760 762 762 763 765 766 767 767 768 769 770 771 772 773 773 774 775 776 777 777 778 779 780 781 782 783 784 785 786 786 787 788 789 790 790 791 791 792 793 793 794 794 795 795 796 796 796 797 797 797 798 798 798
721 722 722 724 725 726 727 727 728 729 730 731 732 734 736 738 740 742 743 744 745 746 747 747 749 750 752 753 754 755 756 757 759 760 761 762 763 764 765 766 767 768 769 770 771 772 772 773 774 775 775 776 777 778 778 779 781 782 782 783 784 785 786 787 788 788 789 790 791 791 792 792 793 793 794 794 795 795 796 796 796 797 797 797 797 798
720 721 722 723 724 725 726 727 728 729 730 731 732 732 734 736 738 740 742 744 745 746 747 748 749 750 752 753 754 755 756 757 758 760 761 762 763 764 765 766 767 768 769 770 771 772 772 773 774 774 775 776 777 777 778 779 780 781 782 783 784 785 786 786 787 788 789 790 790 791 791 792 792 793 793 794 794 795 795 796 796 796 796 797 797 797
720 720 721 722 723 724 725 726 727 728 729 730 731 732 733 734 736 738 741 743 745 746 747 748 749 751 752 753 753 754 755 757 758 759 761 762 763 764 765 766 767 767 768 769 770 771 772 773 774 774 775 776 777 777 778 779 780 781 782 782 783 784 785 786 787 788 788 789 790 790 791 791 792 792 793 793 794 794 795 795 795 796 796 796 796 796
719 720 721 721 722 723 724 725 727 728 729 730 731 732 733 734 734 736 739 742 743 745 746 747 749 750 751 752 752 753 754 755 757 758 760 761 763 764 765 765 766 767 768 769 770 771 772 773 773 774 775 776 777 777 778 779 780 781 782 782 783 784 785 786 786 787 788 788 789 790 790 791 791 792 792 793 793 794 794 794 795 795 795 796 796 796
718 719 720 721 722 722 724 725 726 727 728 729 730 731 732 733 734 735 737 739 742 744 745 746 747 748 750 751 752 752 753 754 755 757 759 761 762 763 764 765 765 766 767 768 769 770 772 772 773 774 775 776 777 777 778 779 780 781 781 782 783 783 784 785 786 786 787 788 788 789 790 790 791 791 792 792 793 793 793 794 794 794 795 795 795 795
718 719 719 720 721 722 723 724 725 727 728 728 729 730 731 732 733 735 736 738 741 743 745 745 746 747 748 750 751 752 752 753 754 757 758 760 761 762 763 764 765 766 767 767 769 770 771 772 773 774 775 776 777 777 778 779 780 780 781 782 782 783 784 784 785 786 786 787 788 788 789 790 790 791 791 791 792 792 793 793 793 794 794 794 794 795
717 718 719 720 721 722 723 724 725 726 727 727 728 729 730 732 733 734 736 738 740 742 744 745 746 747 748 749 750 751 752 752 754 756 757 759 761 762 763 763 764 765 766 767 768 769 770 772 772 773 774 775 776 777 778 779 779 780 781 781 782 782 783 784 785 785 786 786 787 788 788 789 790 790 791 791 791 792 792 792 793 793 793 793 794 794
717 717 718 720 722 723 723 724 725 725 726 727 728 729 730 731 732 734 735 737 739 741 742 744 746 747 748 749 751 751 752 752 752 754 757 758 760 762 762 763 764 764 765 766 767 769 770 771 772 773 774 775 776 777 777 778 779 780 781 781 782 782 783 783 784 785 785 786 786 787 788 788 789 789 790 790 791 791 791 792 792 792 792 793 793 793
717 717 718 720 722 723 724 725 725 726 727 727 728 728 729 730 731 733 734 736 738 739 740 742 744 747 749 750 751 751 751 751 752 754 756 758 760 762 762 763 764 764 765 766 767 768 770 771 772 773 774 775 776 777 777 778 779 780 780 781 782 782 782 783 783 784 785 785 786 786 787 788 788 789 789 790 790 791 791 791 791 791 792 792 792 792
718 718 719 721 722 724 725 725 726 726 727 727 727 728 729 730 731 732 733 735 737 738 739 740 742 744 747 749 750 751 750 750 751 753 756 758 760 761 762 763 763 763 764 765 767 768 769 771 772 773 774 775 776 776 777 778 778 779 780 781 781 782 782 782 783 783 784 785 785 786 786 787 788 788 789 789 790 790 790 791 791 791 791 791 791 791
719 720 720 722 723 724 725 726 727 727 727 727 728 728 729 730 731 732 733 734 736 737 738 739 740 742 744 746 748 749 750 750 751 752 755 758 760 761 762 763 763 763 763 765 766 767 769 771 772 773 774 775 776 776 777 777 778 779 780 780 781 781 782 782 782 783 783 784 785 785 786 786 787 787 788 788 789 789 790 790 790 790 790 791 791 791
721 721 722 723 724 725 726 727 727 728 728 728 728 728 729 729 730 732 732 734 735 736 737 738 739 741 743 744 746 747 749 750 751 753 755 758 760 761 763 763 763 763 763 764 766 767 769 770 772 773 775 775 776 776 777 777 778 779 779 780 780 781 781 781 782 782 783 783 784 784 785 786 786 787 787 788 788 789 789 789 789 790 790 790 790 790
723 724 724 724 725 726 727 728 729 729 728 728 728 728 729 729 730 731 732 734 735 736 737 738 739 740 742 743 745 747 748 749 751 752 755 757 760 762 763 764 764 763 763 764 765 767 768 770 772 773 775 776 776 777 777 777 778 778 779 779 780 780 780 781 781 782 782 783 783 784 784 785 786 786 787 787 788 788 788 789 789 789 789 789 789 789
725 726 726 726 726 727 729 729 730 729 729 729 728 729 729 729 730 731 732 733 735 736 737 737 738 740 741 743 744 746 747 749 750 751 753 757 760 762 763 765 765 764 763 764 765 766 767 769 771 774 775 776 776 777 777 777 778 778 779 779 779 780 780 780 781 781 782 782 783 783 784 784 785 786 786 786 787 787 788 788 788 788 788 788 788 788
726 727 728 728 728 729 730 731 731 731 730 730 729 729 730 730 730 731 731 732 733 735 736 737 738 740 741 742 744 746 747 748 749 750 752 755 758 761 763 765 766 765 764 764 765 766 767 769 771 773 776 777 777 777 777 778 778 778 779 779 779 779 779 779 780 780 781 782 782 783 783 784 784 785 786 786 786 787 787 787 787 787 787 787 787 787
728 729 729 730 731 731 732 732 732 732 732 731 731 731 731 731 731 731 732 732 733 734 735 737 738 740 742 743 745 746 748 748 749 749 751 754 757 759 761 763 765 765 765 765 765 766 767 769 771 773 775 777 777 778 778 778 778 778 779 779 779 779 779 779 779 780 781 781 782 782 783 783 784 784 785 785 786 786 786 786 786 786 786 786 786 786
729 730 731 732 732 733 733 733 733 733 733 732 732 732 732 732 732 732 733 733 734 735 736 737 739 742 743 744 746 747 748 748 749 749 750 753 756 758 760 762 763 764 764 765 765 766 767 769 771 772 774 776 778 778 779 779 779 779 779 779 778 778 778 778 778 779 780 781 782 782 782 783 783 783 784 784 785 785 785 786 786 786 785 785 785 784
731 731 732 732 733 734 734 734 734 734 734 734 734 734 734 734 734 734 734 734 735 735 736 738 740 742 744 745 746 747 747 748 749 749 749 752 756 759 760 761 762 762 763 764 765 766 767 769 770 772 773 775 777 778 779 779 779 779 778 778 778 778 777 777 778 778 779 780 781 782 782 782 782 783 783 784 784 784 785 785 785 784 784 784 783 783
732 732 732 733 733 734 735 735 735 735 735 735 735 735 735 735 735 735 735 735 736 736 737 739 741 743 745 746 747 747 748 748 749 749 750 752 755 758 760 761 761 762 762 763 765 766 767 768 770 772 773 774 776 777 778 779 779 779 778 778 778 777 777 777 777 778 779 780 780 781 781 782 782 782 782 783 783 783 784 784 784 783 783 782 782 782
733 733 733 734 734 735 735 736 736 736 736 736 736 736 736 736 736 736 737 737 737 737 738 739 741 743 746 748 748 748 748 748 749 750 751 752 755 758 760 760 761 761 762 763 765 766 767 768 770 771 772 774 775 777 777 778 778 778 778 778 777 777 777 776 777 777 778 779 780 780 781 781 781 782 782 782 782 783 783 783 783 782 782 781 781 781
734 734 735 735 735 736 736 736 736 737 737 737 737 737 737 737 737 737 738 738 738 739 740 741 742 744 747 748 749 749 748 749 750 751 752 753 755 757 759 760 761 761 762 763 765 767 768 769 770 771 772 774 775 776 777 777 777 777 777 777 777 776 776 776 777 777 778 779 779 780 780 780 781 781 781 781 782 782 782 782 782 781 781 780 780 779
735 735 736 736 736 736 736 737 737 737 737 737 737 737 737 738 738 738 739 739 739 740 741 742 743 745 747 748 749 749 749 750 751 752 752 754 756 757 759 760 760 761 762 763 765 767 769 770 771 772 772 774 775 776 777 777 777 776 776 776 776 776 776 776 777 777 778 778 779 779 779 780 780 780 780 781 781 781 781 781 781 780 780 779 778 778
737 737 737 737 737 737 737 737 737 738 738 738 738 739 739 739 739 740 740 740 741 741 742 743 744 746 747 747 748 750 751 752 752 752 753 754 756 757 758 759 760 760 761 762 763 765 768 770 771 772 772 773 775 776 776 776 775 775 775 775 775 775 776 776 777 777 777 778 778 778 779 779 779 779 780 780 780 780 780 780 780 779 778 778 777 777
738 738 738 738 738 738 738 738 739 739 739 739 740 740 740 740 741 741 741 741 742 742 743 744 745 746 747 747 748 750 752 752 753 753 753 754 756 757 758 759 759 760 761 761 761 762 765 768 770 771 772 773 774 774 775 774 774 774 774 774 775 775 776 776 776 776 777 777 777 777 778 778 779 779 779 779 779 779 779 779 779 778 777 777 777 776
740 740 740 740 740 740 740 740 740 740 741 741 741 741 742 742 742 742 742 743 743 743 744 745 746 747 747 748 749 751 752 753 753 754 754 754 756 757 758 758 759 760 761 761 761 762 763 766 768 770 771 772 772 773 773 773 773 773 773 774 774 775 775 776 776 776 776 776 777 777 777 778 778 778 778 778 778 778 778 778 778 777 777 776 776 775
742 742 742 742 742 742 742 742 742 742 742 742 743 743 743 743 743 744 744 744 744 745 745 746 746 747 748 748 750 751 752 753 754 754 754 755 755 757 758 758 759 760 761 761 762 762 763 765 767 768 770 771 771 772 772 772 772 772 773 774 774 775 775 775 775 775 775 776 776 777 777 777 777 777 777 777 777 777 777 777 777 776 776 776 775 774
743 743 743 743 743 743 743 743 743 744 744 744 745 745 745 745 745 745 745 746 746 746 746 747 747 748 748 749 750 752 752 753 754 754 755 755 755 756 757 758 759 760 760 761 762 762 764 765 766 767 768 769 770 771 771 771 772 772 773 774 774 774 774 774 774 774 775 775 776 776 777 777 777 777 776 776 776 776 776 776 775 775 775 775 774 774
744 744 745 745 745 745 745 745 745 746 746 746 747 747 747 747 747 747 747 747 747 748 748 748 748 749 749 750 751 752 753 754 754 755 755 756 756 757 758 759 759 760 760 761 762 762 764 765 766 767 767 768 769 770 771 771 772 772 773 773 773 773 773 773 773 774 774 775 775 776 776 776 776 776 776 775 775 775 775 775 774 774 774 774 773 773
746 747 747 747 747 747 747 747 747 747 748 748 748 748 749 749 749 749 749 749 749 749 749 750 750 750 751 751 752 752 753 754 755 755 756 756 757 757 758 759 760 760 761 761 762 762 763 765 766 767 767 768 769 770 770 771 772 772 772 773 773 773 773 773 773 773 774 774 775 775 776 775 775 775 775 774 774 774 774 774 773 773 773 773 772 772
748 748 749 749 749 749 749 749 749 749 750 750 750 750 750 751 751 751 751 751 751 751 751 751 751 752 752 752 753 754 754 755 755 756 756 757 757 758 759 759 760 761 761 762 762 763 764 765 766 767 767 768 769 769 770 771 771 771 772 772 772 772 772 772 772 773 774 774 775 775 775 775 774 774 774 773 773 773 773 773 772 772 772 772 772 772
750 751 751 751 751 751 750 751 751 751 751 751 752 752 752 752 752 752 752 752 752 752 753 753 753 753 754 754 755 755 756 756 757 757 757 758 758 759 759 760 760 761 762 762 763 763 764 765 765 766 767 768 768 769 769 770 770 770 771 771 771 772 772 772 772 773 773 774 774 774 774 774 773 773 773 772 772 772 772 772 771 771 771 770 770 770
752 752 752 753 752 752 752 752 752 753 753 753 753 753 753 753 753 753 753 754 754 754 754 754 755 755 755 755 756 757 757 757 758 758 758 759 759 759 760 760 761 761 762 762 763 763 764 765 765 766 766 767 767 768 769 769 769 770 770 770 771 771 772 772 772 773 773 774 774 773 773 773 772 772 772 772 771 771 771 771 770 770 769 769 769 768
754 754 754 754 754 754 754 754 754 754 754 754 754 754 754 754 754 754 755 755 755 755 755 756 756 756 756 757 757 757 758 758 759 759 759 759 760 760 760 761 761 762 762 762 763 764 764 765 765 766 766 766 767 767 768 768 769 769 769 770 770 771 771 772 772 772 773 773 773 772 772 772 771 771 771 771 771 770 770 770 769 769 768 768 768 768
756 756 756 756 755 755 755 755 755 755 755 755 755 755 755 755 756 756 756 756 756 756 756 756 757 757 757 757 758 758 759 759 759 760 760 760 760 761 761 761 762 762 762 763 763 764 764 765 765 765 766 766 766 767 767 768 768 768 769 769 770 770 771 771 772 772 772 772 772 771 771 770 770 770 770 770 769 769 769 769 768 768 767 767 767 767
757 757 757 757 757 757 757 756 756 756 756 756 756 756 756 757 757 757 757 757 757 757 757 757 757 757 758 758 758 759 759 760 760 760 760 761 761 761 761 762 762 762 763 763 764 764 764 765 765 765 765 766 766 766 767 767 768 768 769 769 769 770 770 770 771 771 771 771 770 770 770 769 769 769 769 768 768 768 768 767 767 767 767 766 766 766
758 758 758 758 758 757 757 757 757 757 757 757 757 757 757 757 758 758 758 757 758 758 758 758 758 758 758 759 759 759 760 760 760 761 761 761 762 762 762 762 762 763 763 763 764 764 765 765 765 765 765 766 766 766 767 767 767 768 768 769 769 769 769 769 769 770 770 769 769 769 768 768 768 768 767 767 767 767 766 766 766 766 765 765 765 765
759 759 759 759 759 758 758 758 758 758 758 758 758 758 758 758 758 758 758 759 759 759 759 758 758 758 759 759 760 760 760 761 761 761 761 762 762 762 762 762 763 763 763 764 764 764 765 765 765 765 765 766 766 766 766 767 767 767 768 768 768 768 768 768 768 768 768 768 768 768 767 767 767 767 766 766 765 765 765 764 764 764 764 764 764 764
760 760 760 760 759 759 759 759 759 759 759 759 759 759 759 759 759 759 759 759 759 759 759 759 759 759 759 760 760 761 761 761 761 762 762 762 762 763 763 763 763 763 763 764 764 764 764 765 765 765 765 765 766 766 766 766 767 767 767 767 767 767 767 767 767 767 767 767 767 767 767 767 766 766 765 764 763 763 763 763 762 762 762 762 762 762
761 761 761 761 760 760 760 760 760 760 760 760 760 760 760 760 760 760 760 760 760 760 760 760 760 760 760 761 761 761 762 762 762 762 762 762 763 763 763 763 763 763 763 764 764 764 764 764 764 765 765 765 765 765 765 766 766 766 766 766 766 766 766 767 767 767 767 767 766 766 766 765 765 764 763 762 762 762 761 761 761 761 761 761 761 761
762 762 761 761 761 761 761 761 761 761 761 761 761 761 760 760 760 760 761 761 761 761 761 761 761 761 761 761 762 762 762 762 762 762 762 763 763 763 763 763 763 763 763 763 763 763 763 764 764 764 764 764 765 765 765 765 765 765 765 765 765 765 766 766 766 766 766 766 766 765 765 764 764 763 762 761 760 760 759 759 760 760 760 760 760 759
762 762 762 762 762 762 762 761 761 761 761 761 761 761 761 761 761 761 761 761 762 762 762 762 762 762 762 762 762 762 762 762 763 763 763 763 763 763 763 763 763 763 763 763 763 763 763 763 763 763 764 764 764 764 764 764 764 764 765 765 765 765 765 765 765 765 765 765 765 765 764 764 763 762 762 760 759 758 757 757 758 758 758 758 758 758
763 762 762 762 762 762 762 762 762 762 762 762 762 762 761 761 761 761 762 762 762 762 762 763 763 763 763 763 763 763 763 763 763 763 763 763 763 763 763 763 762 762 762 762 762 762 762 762 762 763 763 763 764 764 764 764 764 764 764 764 765 765 765 765 765 765 764 764 764 764 763 763 762 762 761 760 758 757 757 756 756 757 757 757 757 757
763 763 762 762 762 762 762 762 762 762 762 762 762 762 762 762 762 762 762 762 762 762 763 763 763 763 763 763 763 763 763 763 763 763 763 763 763 763 763 763 763 762 762 762 762 762 762 762 762 763 763 763 764 764 764 764 764 764 764 764 764 764 764 764 764 764 763 763 763 763 762 762 761 760 760 759 758 757 756 755 755 755 755 756 755 755